Notices

What's New in latest Release from April 7th, 2021:

- Updated Glossary, including Speed of Maximum Gust, and Total Hourly Precipitation

- Updated national and regional climate services offices contacts and prices information

- Addition of station inventory lists for 1981-2010, 1971-2000, and 1961-1990 Normals.

If you haven't already, please take our survey and provide feedback about our website: https://eccc.sondage-survey.ca/f/LanguageSelection.aspx?s=442ca660-fcf1-47c0-95a9-59707d6fd709

Hourly Data Report for March 21, 2019

MIRAMICHI RCS
NEW BRUNSWICK
Current Station Operator: ECCC - MSC

47°00'34.000" N
65°27'54.000" W
33.00 m
8100989
71744
ACQ

Download Data

Hourly Data (March 2019)
Hourly Data Report for March 21, 2019
TIME
LST
Temp Definition
°C
Dew Point Definition
°C
Rel Hum Definition
%
Precip. Amount Definition
mm

Wind Dir Definition
10's deg

Wind Spd Definition
km/h
Visibility Definition
km
Stn Press Definition
kPa
Hmdx Definition


Wind Chill Definition


Weather Definition


00:00 -1.3 -9.0 56 0.0 24 20   101.90   -7 LegendNANA
01:00 -1.8 -8.5 60 0.0 23 19   101.92   -7 LegendNANA
02:00 -1.6 -8.4 60 0.0 23 15   101.88   -6 LegendNANA
03:00 -2.2 -7.8 66 0.0 23 13   101.83   -7 LegendNANA
04:00 -2.6 -7.3 70 0.0 23 12   101.82   -7 LegendNANA
05:00 -2.8 -7.1 72 0.0 20 8   101.80   -6 LegendNANA
06:00 -2.1 -6.6 71 0.0 22 11   101.80   -6 LegendNANA
07:00 -2.1 -6.2 74 0.0 22 15   101.81   -7 LegendNANA
08:00 -1.1 -4.8 76 0.0 23 18   101.79   -6 LegendNANA
09:00 0.6 -3.3 75 0.0 23 22   101.75     LegendNANA
10:00 2.6 -2.4 70 0.0 22 27   101.68     LegendNANA
11:00 4.6 -2.3 61 0.0 23 24   101.59     LegendNANA
12:00 6.3 -2.8 52 0.0 22 28   101.49     LegendNANA
13:00 7.4 -3.2 47 0.0 23 29   101.42     LegendNANA
14:00 7.7 -2.8 47 0.0 23 27   101.35     LegendNANA
15:00 7.7 -2.2 50 0.0 22 24   101.31     LegendNANA
16:00 7.6 -2.7 48 0.0 21 26   101.29     LegendNANA
17:00 7.4 -2.3 50 0.0 20 28   101.25     LegendNANA
18:00 6.2 -2.4 54 0.0 19 22   101.23     LegendNANA
19:00 5.4 -2.9 55 0.0 19 24   101.28     LegendNANA
20:00 4.5 -3.5 56 0.0 20 24   101.35     LegendNANA
21:00 3.5 -3.2 61 0.0 20 18   101.33     LegendNANA
22:00 3.1 -3.2 63 0.0 20 22   101.26     LegendNANA
23:00 2.2 -3.6 66 0.0 20 19   101.24     LegendNANA

Notes on Data Quality.

Legend

  • E = Estimated
  • M = Missing
  • NA = Not Available*
  • [empty] = Indicates an unobserved value
Date modified: